Tracking 31023 objects as of 19-Jul-2025
HD Live streaming from Space Station
objects crossing your sky now

OBJECT C

Track OBJECT C now!
10-day predictions


NORAD ID: 57006
Int'l Code: 2023-085C
Perigee: 438.0 km
Apogee: 445.0 km
Inclination: 97.5 °
Period: 93.3 minutes
Semi major axis: 6812 km
RCS: Unknown
Launch date: June 15, 2023
Source: People's Republic of China (PRC)
Launch site: Taiyaun Space Center, China (TSC)
Your satellite tracking list
Your tracking list is empty




NASA's NSSDC Master Catalog

Two Line Element Set (TLE):
1 57006U 23085C   25200.21474801  .00028692  00000-0  62981-3 0  9998
2 57006  97.4761 311.9191 0005155 110.0484 250.1319 15.43996906116307
Source of the keplerian elements: AFSPC